Saýat

Turkmenistan     38˚46′49″N   63˚52′48″E
temp.,
°C
wind,
m/s
gust,
m/s
humid.,
%
clouds,
%
prec.,
mm/h
press.,
hPa
HPBL,
m
1 december, tue
tue123:00+8˚nnw343299 0.0 102597
02:00+7˚nnw353996 0.0 1024133
05:00+2˚nnw235148 0.0 102526
08:00+2˚wnw34490 0.0 102643
11:00+7˚w34340 0.0 1026315
14:00+10˚wnw34270 0.0 1025466
17:00+8˚nw11330 0.0 1025135
20:00+5˚nnw12460 0.0 102624
2 december, wed
wed223:00+5˚n23380 0.0 102624
02:00+4˚n33420 0.0 102624
05:00+5˚n344316 0.0 102633
08:00+4˚nne234765 0.0 102732
11:00+9˚n223377 0.0 1027302
14:00+12˚n33307 0.0 1026539
17:00+11˚n333645 0.0 102568
20:00+8˚n574549 0.0 1026116
3 december, thu
thu323:00+6˚nnw455075 0.0 1026100
02:00+4˚nnw45531 0.0 102686
05:00+3˚n445339 0.0 102685
08:00+3˚n3554100 0.0 1028111
11:00+6˚nnw334692 0.0 1027254
14:00+10˚nnw3440100 0.0 1026427
17:00+10˚nnw5639100 0.0 1025333
20:00+8˚nnw573699 0.0 1027272
4 december, fri
fri423:00+6˚nw343899 0.0 1027194
02:00+4˚nw343995 0.0 1028137
05:00+2˚nnw344692 0.0 1028107
08:00n345355 0.0 103097
11:00+4˚nnw333764 0.0 1031324
14:00+7˚nnw332863 0.0 1030600
17:00+5˚nnw232832 0.0 1029262
20:00+3˚n34320 0.0 103075
5 december, sat
sat523:00+1˚n44360 0.0 103073
02:00nne34380 0.0 103055
05:00−1˚ne33440 0.0 102940
08:00−1˚nne34450 0.0 102936
11:00+4˚nne34300 0.0 1029314
14:00+7˚n44240 0.0 1026478
17:00+6˚n35210 0.0 1026257
20:00+3˚n57200 0.0 1027117